Location: Cahas Mountain Overlook
(37.0833°N, 80.1000°W)
Time: 17:45:00
(UTC-05:00)

Vanguard 3 - Pass Details

Date: 08 December 2023
Orbit: 508 x 3239 km, 33.4° (Epoch: 23 February)

Event Time Altitude Azimuth Distance (km) Brightness Sun altitude
Rises 20:40:35 0° 239° (WSW) 7,018 12.5 -42.6°
Reaches altitude 10° 20:45:46 10° 236° (WSW) 5,771 11.9 -43.6°
Enters shadow 20:59:05 52° 200° (SSW) 2,673 9.6 -46.3°
